• In Italy
  • List of Countries
  • For 7 days
  • Water Temperature
  • Satellite Maps
  • Weather Map
  • Weather Widgets
  • user-avatar
    Login

    Hourly Weather Shkoder

    Today, 21 July, Friday

    Time Temperature Precipitation Wind Pressure Humidity
    00:00 +23°C° 0 mm 1 mps 739 mmHg 65%
    01:00 +23°C° 0 mm 1 mps 739 mmHg 65%
    02:00 +23°C° 0 mm 1 mps 739 mmHg 65%
    03:00 +23°C° 0 mm 1 mps 739 mmHg 64%
    04:00 +22°C° 0 mm 1 mps 739 mmHg 63%
    05:00 +24°C° 0 mm 1 mps 739 mmHg 58%
    06:00 +27°C° 0 mm 1 mps 739 mmHg 53%
    07:00 +29°C° 0 mm 1 mps 739 mmHg 46%
    08:00 +30°C° 0 mm 1 mps 739 mmHg 42%
    09:00 +32°C° 0 mm 1 mps 739 mmHg 38%
    10:00 +34°C° 0 mm 1 mps 739 mmHg 34%
    11:00 +35°C° 0 mm 2 mps 739 mmHg 33%
    12:00 +36°C° 0 mm 2 mps 739 mmHg 32%
    13:00 +37°C° 0 mm 3 mps 739 mmHg 31%
    14:00 +36°C° 0 mm 3 mps 739 mmHg 32%
    15:00 +36°C° 0 mm 3 mps 739 mmHg 34%
    16:00 +36°C° 0 mm 3 mps 739 mmHg 36%
    17:00 +32°C° 0 mm 2 mps 739 mmHg 42%
    18:00 +30°C° 0 mm 2 mps 739 mmHg 49%
    19:00 +28°C° 0 mm 1 mps 739 mmHg 55%
    20:00 +27°C° 0 mm 1 mps 739 mmHg 56%
    21:00 +26°C° 0 mm 1 mps 739 mmHg 57%
    22:00 +25°C° 0 mm 1 mps 740 mmHg 58%
    23:00 +25°C° 0 mm 1 mps 740 mmHg 57%

    Tomorrow, 22 July, Saturday

    Time Temperature Precipitation Wind Pressure Humidity
    00:00 +25°C° 0 mm 1 mps 740 mmHg 56%
    01:00 +25°C° 0 mm 1 mps 740 mmHg 56%
    02:00 +24°C° 0 mm 1 mps 740 mmHg 55%
    03:00 +24°C° 0 mm 1 mps 740 mmHg 55%
    04:00 +24°C° 0 mm 2 mps 740 mmHg 55%
    05:00 +26°C° 0 mm 1 mps 740 mmHg 51%
    06:00 +28°C° 0 mm 1 mps 740 mmHg 47%
    07:00 +30°C° 0 mm 1 mps 740 mmHg 44%
    08:00 +32°C° 0 mm 1 mps 740 mmHg 40%
    09:00 +33°C° 0 mm 1 mps 740 mmHg 37%
    10:00 +36°C° 0 mm 2 mps 740 mmHg 34%
    11:00 +37°C° 0 mm 2 mps 740 mmHg 33%
    12:00 +37°C° 0 mm 3 mps 740 mmHg 31%
    13:00 +38°C° 0 mm 3 mps 740 mmHg 30%
    14:00 +37°C° 0 mm 3 mps 740 mmHg 32%
    15:00 +37°C° 0 mm 3 mps 740 mmHg 33%
    16:00 +36°C° 0 mm 3 mps 739 mmHg 34%
    17:00 +34°C° 0 mm 2 mps 739 mmHg 40%
    18:00 +30°C° 0 mm 2 mps 739 mmHg 46%
    19:00 +28°C° 0 mm 1 mps 739 mmHg 51%
    20:00 +27°C° 0 mm 1 mps 740 mmHg 52%
    21:00 +26°C° 0 mm 1 mps 740 mmHg 53%
    22:00 +25°C° 0 mm 1 mps 740 mmHg 53%
    23:00 +25°C° 0 mm 1 mps 740 mmHg 52%

    Day after tomorrow, 23 July, Sunday

    Time Temperature Precipitation Wind Pressure Humidity
    00:00 +24°C° 0 mm 1 mps 740 mmHg 51%
    01:00 +24°C° 0 mm 2 mps 740 mmHg 50%
    02:00 +24°C° 0 mm 2 mps 740 mmHg 50%
    03:00 +24°C° 0 mm 2 mps 740 mmHg 50%
    04:00 +23°C° 0 mm 2 mps 740 mmHg 50%
    05:00 +26°C° 0 mm 2 mps 740 mmHg 47%
    06:00 +28°C° 0 mm 1 mps 740 mmHg 44%
    07:00 +30°C° 0 mm 1 mps 740 mmHg 40%
    08:00 +32°C° 0 mm 1 mps 740 mmHg 36%
    09:00 +34°C° 0 mm 2 mps 740 mmHg 33%
    10:00 +36°C° 0 mm 2 mps 740 mmHg 29%
    11:00 +37°C° 0 mm 2 mps 740 mmHg 28%
    12:00 +37°C° 0 mm 3 mps 739 mmHg 28%
    13:00 +38°C° 0 mm 3 mps 739 mmHg 27%
    14:00 +38°C° 0 mm 3 mps 739 mmHg 29%
    15:00 +37°C° 0 mm 3 mps 738 mmHg 31%
    16:00 +37°C° 0 mm 3 mps 738 mmHg 33%
    17:00 +34°C° 0 mm 2 mps 738 mmHg 40%
    18:00 +31°C° 0 mm 2 mps 738 mmHg 47%
    19:00 +28°C° 0 mm 1 mps 738 mmHg 54%
    20:00 +27°C° 0 mm 1 mps 739 mmHg 56%
    21:00 +26°C° 0 mm 1 mps 739 mmHg 58%
    22:00 +25°C° 0 mm 1 mps 739 mmHg 60%
    23:00 +25°C° 0 mm 1 mps 739 mmHg 60%

    24 July, Monday

    Time Temperature Precipitation Wind Pressure Humidity
    00:00 +25°C° 0 mm 1 mps 738 mmHg 60%
    01:00 +24°C° 0 mm 1 mps 738 mmHg 60%
    02:00 +24°C° 0 mm 1 mps 738 mmHg 60%
    03:00 +24°C° 0 mm 1 mps 737 mmHg 60%
    04:00 +24°C° 0 mm 1 mps 737 mmHg 61%
    05:00 +26°C° 0 mm 1 mps 737 mmHg 56%
    06:00 +28°C° 0 mm 1 mps 737 mmHg 51%
    07:00 +28°C° 0 mm 0 mps 737 mmHg 46%
    08:00 +32°C° 0 mm 1 mps 737 mmHg 40%
    09:00 +33°C° 0 mm 1 mps 737 mmHg 35%
    10:00 +36°C° 0 mm 2 mps 737 mmHg 30%
    11:00 +37°C° 0 mm 2 mps 736 mmHg 29%
    12:00 +37°C° 0 mm 3 mps 736 mmHg 27%
    13:00 +38°C° 0 mm 3 mps 735 mmHg 26%
    14:00 +38°C° 0 mm 3 mps 735 mmHg 27%
    15:00 +37°C° 0 mm 3 mps 734 mmHg 29%
    16:00 +37°C° 0 mm 3 mps 734 mmHg 30%
    17:00 +34°C° 0 mm 2 mps 733 mmHg 37%
    18:00 +31°C° 0 mm 2 mps 733 mmHg 43%
    19:00 +28°C° 0 mm 1 mps 733 mmHg 50%
    20:00 +27°C° 0 mm 1 mps 733 mmHg 51%
    21:00 +26°C° 0 mm 2 mps 733 mmHg 52%
    22:00 +25°C° 0 mm 2 mps 733 mmHg 53%
    23:00 +25°C° 0 mm 2 mps 732 mmHg 53%

    25 July, Tuesday

    Time Temperature Precipitation Wind Pressure Humidity
    00:00 +24°C° 0 mm 2 mps 732 mmHg 52%
    01:00 +24°C° 0 mm 2 mps 732 mmHg 52%
    02:00 +24°C° 0 mm 2 mps 732 mmHg 53%
    03:00 +22°C° 0 mm 3 mps 732 mmHg 54%
    04:00 +22°C° 0 mm 3 mps 732 mmHg 56%
    05:00 +24°C° 0 mm 3 mps 732 mmHg 58%
    06:00 +26°C° 0 mm 3 mps 732 mmHg 61%
    07:00 +27°C° 0 mm 4 mps 732 mmHg 63%
    08:00 +28°C° 0 mm 4 mps 732 mmHg 58%
    09:00 +30°C° 0 mm 5 mps 732 mmHg 52%
    10:00 +32°C° 0 mm 5 mps 732 mmHg 46%
    11:00 +32°C° 0 mm 5 mps 732 mmHg 44%
    12:00 +32°C° 0 mm 5 mps 732 mmHg 43%
    13:00 +32°C° 0 mm 5 mps 732 mmHg 41%
    14:00 +32°C° 0 mm 5 mps 732 mmHg 42%
    15:00 +30°C° 0 mm 4 mps 732 mmHg 42%
    16:00 +30°C° 0 mm 4 mps 732 mmHg 43%
    17:00 +28°C° 0 mm 3 mps 732 mmHg 49%
    18:00 +26°C° 0 mm 3 mps 732 mmHg 55%
    19:00 +25°C° 0 mm 2 mps 732 mmHg 61%
    20:00 +24°C° 0 mm 2 mps 732 mmHg 63%
    21:00 +23°C° 0 mm 2 mps 733 mmHg 65%
    22:00 +21°C° 0 mm 2 mps 733 mmHg 66%
    23:00 +21°C° 0 mm 2 mps 733 mmHg 68%

    26 July, Wednesday

    Time Temperature Precipitation Wind Pressure Humidity
    00:00 +21°C° 0 mm 2 mps 733 mmHg 69%
    01:00 +20°C° 0 mm 2 mps 732 mmHg 70%
    02:00 +20°C° 0 mm 2 mps 732 mmHg 72%
    03:00 +20°C° 0 mm 2 mps 732 mmHg 75%
    04:00 +19°C° 0 mm 2 mps 732 mmHg 77%
    05:00 +21°C° 0 mm 2 mps 733 mmHg 72%
    06:00 +24°C° 0 mm 2 mps 733 mmHg 67%
    07:00 +25°C° 0 mm 2 mps 733 mmHg 63%
    08:00 +26°C° 0.1 mm 3 mps 733 mmHg 60%
    09:00 +27°C° 0.1 mm 3 mps 733 mmHg 57%
    10:00 +28°C° 0.1 mm 4 mps 733 mmHg 53%
    11:00 +29°C° 0.1 mm 4 mps 733 mmHg 52%
    12:00 +29°C° 0.1 mm 4 mps 733 mmHg 50%
    13:00 +29°C° 0.1 mm 5 mps 733 mmHg 49%
    14:00 +29°C° 0 mm 4 mps 733 mmHg 48%
    15:00 +28°C° 0 mm 4 mps 733 mmHg 47%
    16:00 +28°C° 0 mm 3 mps 733 mmHg 46%
    17:00 +26°C° 0 mm 3 mps 733 mmHg 53%
    18:00 +24°C° 0 mm 2 mps 734 mmHg 61%
    19:00 +21°C° 0 mm 2 mps 734 mmHg 68%
    20:00 +21°C° 0 mm 1 mps 734 mmHg 72%
    21:00 +20°C° 0 mm 1 mps 735 mmHg 77%
    22:00 +19°C° 0 mm 1 mps 735 mmHg 82%
    23:00 +19°C° 0 mm 1 mps 735 mmHg 82%
    Show more